EW1390 Weather Reports


time (UTC)temp
C
wind
direction
speed
KPH
gust
KPH
rain 1hr
cm
rain 24hr
cm
rain mn
cm
humidity
%
barometer
mb
20260508060020 13 242 0.0 0.0 0.00 0.03 0.03 89 1008.8
20260508054518 14 242 0.0 0.0 0.00 0.03 0.03 88 1009.0
20260508053017 14 242 0.0 0.0 0.00 0.03 0.03 88 1009.0
20260508051516 15 242 0.0 0.0 0.00 0.03 0.03 88 1008.9
20260508050018 15 242 0.0 0.0 0.00 0.03 0.03 87 1008.8
20260508044515 15 242 0.0 1.6 0.00 0.03 0.03 87 1008.8
20260508043015 16 242 0.0 0.0 0.00 0.03 0.03 86 1008.7
20260508041513 16 242 0.0 1.6 0.00 0.03 0.03 84 1008.7
20260508040015 17 242 0.0 1.6 0.00 0.03 0.03 83 1008.5
20260508034516 17 242 0.0 1.6 0.00 0.03 0.03 81 1008.3
20260508033017 18 242 0.0 1.6 0.00 0.03 0.03 79 1008.2
20260508031510 19 242 0.0 0.0 0.00 0.03 0.03 77 1008.1
20260508030010 20 242 0.0 0.0 0.00 0.03 0.03 74 1007.8
20260508024513 21 242 0.0 0.0 0.00 0.03 0.03 70 1007.7
20260508023016 22 242 0.0 1.6 0.00 0.03 0.03 66 1007.7
20260508021507 23 238 0.0 4.8 0.00 0.03 0.03 60 1007.7
20260508020008 23 238 0.0 3.2 0.00 0.03 0.03 54 1007.7
20260508014507 25 331 1.6 8.0 0.00 0.03 0.03 54 1007.7
20260508013006 26 248 1.6 8.0 0.00 0.03 0.03 53 1007.7
20260508011506 26 245 1.6 11.3 0.00 0.03 0.03 55 1007.7
20260508010012 26 241 3.2 14.5 0.00 0.03 0.03 55 1007.7
20260508004511 27 210 0.0 8.0 0.00 0.03 0.03 55 1007.7
20260508003006 27 215 3.2 6.4 0.00 0.03 0.03 53 1007.7
20260508001502 27 225 1.6 9.7 0.00 0.03 0.03 54 1007.7
20260508000002 27 300 1.6 6.4 0.00 0.03 0.03 55 1007.7
20260507234501 27 240 0.0 4.8 0.00 0.03 0.03 54 1007.8
20260507233059 27 244 1.6 8.0 0.00 0.03 0.03 54 1007.9
20260507231559 27 277 1.6 11.3 0.00 0.03 0.03 55 1008.0
20260507230056 27 232 1.6 4.8 0.00 0.03 0.03 54 1008.2
20260507224600 27 242 0.0 9.7 0.00 0.03 0.03 55 1008.4
20260507223051 27 346 1.6 8.0 0.00 0.03 0.03 56 1008.5
20260507221548 27 334 1.6 6.4 0.00 0.03 0.03 55 1008.8
20260507220045 26 217 1.6 11.3 0.00 0.03 0.03 52 1009.0
20260507214543 26 234 0.0 9.7 0.00 0.03 0.03 55 1009.1
20260507213047 26 255 1.6 8.0 0.00 0.03 0.03 55 1009.2
20260507211536 26 254 1.6 4.8 0.00 0.03 0.03 53 1009.5
20260507210100 25 242 3.2 9.7 0.00 0.03 0.03 56 1009.6
20260507204530 25 293 1.6 8.0 0.00 0.03 0.03 57 1009.8
20260507203027 25 355 1.6 6.4 0.00 0.03 0.03 56 1009.9
20260507201525 24 314 1.6 8.0 0.00 0.03 0.03 59 1010.2
20260507200034 24 207 1.6 8.0 0.00 0.03 0.03 60 1010.2
20260507194519 24 223 3.2 11.3 0.00 0.03 0.03 59 1010.3
20260507193024 24 171 0.0 14.5 0.00 0.03 0.03 58 1010.5
20260507191522 24 86 1.6 6.4 0.00 0.03 0.03 59 1010.5
20260507190014 23 144 0.0 4.8 0.00 0.03 0.03 61 1010.7
20260507184505 23 219 0.0 11.3 0.00 0.03 0.03 63 1010.9
20260507183004 22 251 1.6 6.4 0.00 0.03 0.03 62 1010.9
20260507181600 22 218 3.2 8.0 0.00 0.03 0.03 63 1011.0
20260507180058 21 114 1.6 6.4 0.00 0.03 0.03 68 1011.0
20260507174559 21 120 0.0 8.0 0.00 0.03 0.03 72 1011.1
20260507173116 20 140 0.0 8.0 0.00 0.03 0.03 76 1011.1
20260507171546 18 229 0.0 4.8 0.00 0.03 0.03 81 1011.3
20260507170045 17 202 0.0 4.8 0.00 0.03 0.03 87 1011.3
20260507164537 16 234 0.0 3.2 0.03 0.03 0.03 91 1011.4
20260507163036 15 234 0.0 3.2 0.03 0.03 0.03 95 1011.6
20260507161529 15 234 0.0 0.0 0.03 0.03 0.03 96 1011.5
20260507160038 13 234 0.0 0.0 0.03 0.03 0.03 96 1011.6
20260507154520 13 234 0.0 0.0 0.00 0.00 0.00 96 1011.7
20260507153020 12 234 0.0 0.0 0.00 0.00 0.00 96 1011.6
20260507151512 11 234 0.0 0.0 0.00 0.00 0.00 95 1011.7
20260507150012 10 234 0.0 0.0 0.00 0.00 0.00 95 1011.6
20260507144524 10 234 0.0 0.0 0.00 0.00 0.00 95 1011.8
20260507143010 10 234 0.0 0.0 0.00 0.00 0.00 95 1011.8
20260507141509 9 234 0.0 0.0 0.00 0.00 0.00 94 1011.8
20260507140009 9 234 0.0 0.0 0.00 0.00 0.00 95 1011.8
20260507134508 9 234 0.0 0.0 0.00 0.00 0.00 94 1011.6
20260507133012 9 234 0.0 0.0 0.00 0.00 0.00 94 1011.5
20260507131506 9 234 0.0 0.0 0.00 0.00 0.00 94 1011.4
20260507130107 9 234 0.0 0.0 0.00 0.00 0.00 94 1011.3
20260507124505 9 234 0.0 0.0 0.00 0.00 0.00 94 1011.2
20260507123005 9 234 0.0 0.0 0.00 0.00 0.00 94 1011.2
20260507121503 9 234 0.0 0.0 0.00 0.00 0.00 94 1011.2
20260507120001 9 234 0.0 0.0 0.00 0.00 0.00 93 1011.1
20260507114604 9 234 0.0 0.0 0.00 0.00 0.00 93 1011.1
20260507113059 9 234 0.0 0.0 0.00 0.00 0.00 93 1011.1
20260507111602 9 234 0.0 0.0 0.00 0.00 0.00 93 1011.1
20260507110156 10 234 0.0 0.0 0.00 0.00 0.00 93 1011.2
20260507104554 10 234 0.0 0.0 0.00 0.00 0.00 93 1011.2
20260507103052 10 234 0.0 0.0 0.00 0.00 0.00 93 1011.2
20260507101602 10 234 0.0 0.0 0.00 0.00 0.00 93 1011.2
20260507100049 10 234 0.0 0.0 0.00 0.00 0.00 93 1011.2
20260507094548 10 234 0.0 0.0 0.00 0.00 0.00 93 1011.3
20260507093047 10 234 0.0 0.0 0.00 0.00 0.00 93 1011.4
20260507091544 10 234 0.0 0.0 0.00 0.00 0.00 93 1011.6
20260507090043 10 234 0.0 0.0 0.00 0.00 0.00 93 1011.7
20260507084543 10 234 0.0 0.0 0.00 0.00 0.00 92 1011.7
20260507083040 10 234 0.0 0.0 0.00 0.00 0.00 92 1011.8
20260507081538 10 234 0.0 0.0 0.00 0.00 0.00 92 1011.8
20260507080039 11 234 0.0 0.0 0.00 0.00 0.00 92 1011.8
20260507074535 11 234 0.0 0.0 0.00 0.00 0.00 92 1011.8
20260507073033 11 234 0.0 0.0 0.00 0.00 0.00 92 1011.8
20260507071530 11 234 0.0 0.0 0.00 0.00 0.00 91 1011.9
20260507070029 11 234 0.0 0.0 0.00 0.00 0.00 91 1011.9
20260507064529 11 234 0.0 0.0 0.00 0.00 0.00 91 1011.9
20260507063031 12 234 0.0 0.0 0.00 0.00 0.00 91 1011.9
20260507061529 12 234 0.0 3.2 0.00 0.00 0.00 90 1011.8